BOX82R EGNX-KMCO

Flight info

Callsign BOX82R
Flight time 8h 7m
Altitude 40000
Route TNT Q4 WAL L10 PENIL M144 BAGSO DCT RINUS DCT MALOT/M087F400 DCT 54N020W 54N030W 53N040W 51N050W DCT ALLRY DCT CARAC M201 DRYED DCT KINER DCT JNFOX DCT FLUPS M204 SUMRS/N0497F400 A699 NUCAR DCT WAPOM MUNGI1
Aircraft B77L/H-SDE1E2E3FGHIJ2J3J4J5M1RWXY/LB1D1

Departure

Time 2026-04-24 06:41
Airport East Midlands Airport (EGNX)

Arrival

Time 2026-04-24 14:49
Airport Orlando International Airport (KMCO)
Time Latitude Longitude Altitude Speed Heading
2026-04-24 06:06 52.82737 -1.35563 305 ft 0 kts 178°
2026-04-24 06:29 52.82738 -1.35563 305 ft 1 kts 178°
2026-04-24 06:30 52.82759 -1.35563 305 ft 3 kts 184°
2026-04-24 06:30 52.82783 -1.35559 305 ft 3 kts 185°
2026-04-24 06:30 52.82806 -1.35559 305 ft 3 kts 157°
2026-04-24 06:30 52.82815 -1.35568 305 ft 2 kts 88°
2026-04-24 06:31 52.82816 -1.35536 305 ft 3 kts 88°
2026-04-24 06:31 52.82816 -1.35530 305 ft 0 kts 89°
2026-04-24 06:38 52.82816 -1.35523 305 ft 5 kts 89°
2026-04-24 06:38 52.82816 -1.35384 308 ft 15 kts 90°
2026-04-24 06:39 52.82862 -1.35268 309 ft 15 kts 36°
2026-04-24 06:39 52.82894 -1.35081 308 ft 20 kts 86°
2026-04-24 06:39 52.82898 -1.34989 308 ft 6 kts 86°
2026-04-24 06:39 52.82913 -1.34942 310 ft 6 kts 17°
2026-04-24 06:40 52.83008 -1.34937 310 ft 17 kts
2026-04-24 06:40 52.83043 -1.34916 311 ft 8 kts 52°
2026-04-24 06:40 52.83065 -1.34743 307 ft 20 kts 88°
2026-04-24 06:40 52.83073 -1.34368 306 ft 46 kts 88°
2026-04-24 06:41 52.83084 -1.33633 313 ft 94 kts 88°
2026-04-24 06:41 52.83120 -1.32083 314 ft 174 kts 85°
2026-04-24 06:41 52.83253 -1.29885 686 ft 204 kts 83°
2026-04-24 06:41 52.83346 -1.27391 1274 ft 227 kts 86°
2026-04-24 06:42 52.83417 -1.24747 2362 ft 225 kts 84°
2026-04-24 06:42 52.83947 -1.22436 3503 ft 220 kts 48°
2026-04-24 06:42 52.85282 -1.21163 4209 ft 231 kts
2026-04-24 06:42 52.86863 -1.21642 4963 ft 240 kts 327°
2026-04-24 06:43 52.87951 -1.23689 5706 ft 248 kts 291°
2026-04-24 06:43 52.88561 -1.26457 6149 ft 270 kts 295°
2026-04-24 06:43 52.89525 -1.29421 6152 ft 314 kts 303°
2026-04-24 06:43 52.90723 -1.32426 6352 ft 307 kts 306°
2026-04-24 06:44 52.91932 -1.35280 6208 ft 301 kts 306°
2026-04-24 06:44 52.93130 -1.38060 6129 ft 291 kts 307°
2026-04-24 06:44 52.94298 -1.40769 5993 ft 289 kts 307°
2026-04-24 06:44 52.95472 -1.43497 5977 ft 291 kts 307°
2026-04-24 06:45 52.96643 -1.46226 5971 ft 289 kts 306°
2026-04-24 06:45 52.97807 -1.48940 5973 ft 288 kts 306°
2026-04-24 06:45 52.98956 -1.51654 5975 ft 287 kts 306°
2026-04-24 06:45 53.00095 -1.54366 5972 ft 286 kts 306°
2026-04-24 06:46 53.01234 -1.57081 5974 ft 286 kts 306°
2026-04-24 06:46 53.02374 -1.59796 5990 ft 286 kts 306°
2026-04-24 06:46 53.03510 -1.62503 5970 ft 286 kts 306°
2026-04-24 06:46 53.04651 -1.65224 5983 ft 287 kts 306°
2026-04-24 06:47 53.05669 -1.68007 5957 ft 284 kts 292°
2026-04-24 06:47 53.06310 -1.71171 5993 ft 289 kts 286°
2026-04-24 06:47 53.06823 -1.74412 5983 ft 293 kts 284°
2026-04-24 06:47 53.07328 -1.77693 6011 ft 293 kts 285°
2026-04-24 06:48 53.07846 -1.80987 6586 ft 295 kts 285°
2026-04-24 06:48 53.08377 -1.84289 7399 ft 295 kts 286°
2026-04-24 06:48 53.08916 -1.87582 8179 ft 295 kts 286°
2026-04-24 06:48 53.09457 -1.90849 8911 ft 298 kts 287°
2026-04-24 06:49 53.10013 -1.94185 9642 ft 300 kts 287°
2026-04-24 06:49 53.10577 -1.97556 10370 ft 302 kts 287°
2026-04-24 06:49 53.11144 -2.00947 11066 ft 305 kts 287°
2026-04-24 06:49 53.11715 -2.04365 11718 ft 308 kts 287°
2026-04-24 06:50 53.11987 -2.05988 11993 ft 311 kts 287°
2026-04-24 06:50 53.12496 -2.09034 12499 ft 315 kts 287°
2026-04-24 06:50 53.13085 -2.12571 13159 ft 317 kts 287°
2026-04-24 06:50 53.13677 -2.16132 13828 ft 320 kts 287°
2026-04-24 06:51 53.14314 -2.19701 14443 ft 322 kts 291°
2026-04-24 06:51 53.15216 -2.23125 14985 ft 324 kts 297°
2026-04-24 06:51 53.16235 -2.26506 15561 ft 327 kts 297°
2026-04-24 06:51 53.17253 -2.29872 16108 ft 330 kts 297°
2026-04-24 06:52 53.18288 -2.33308 16688 ft 333 kts 297°
2026-04-24 06:52 53.19328 -2.36776 17241 ft 336 kts 296°
2026-04-24 06:52 53.20375 -2.40287 17788 ft 340 kts 296°
2026-04-24 06:52 53.21430 -2.43832 18357 ft 342 kts 296°
2026-04-24 06:53 53.22490 -2.47405 18901 ft 345 kts 295°
2026-04-24 06:53 53.23555 -2.51005 19396 ft 346 kts 295°
2026-04-24 06:53 53.24622 -2.54620 19900 ft 348 kts 295°
2026-04-24 06:53 53.25697 -2.58267 20329 ft 352 kts 295°
2026-04-24 06:54 53.26790 -2.61977 20721 ft 357 kts 295°
2026-04-24 06:54 53.27885 -2.65701 21221 ft 358 kts 295°
2026-04-24 06:54 53.28988 -2.69458 21718 ft 360 kts 295°
2026-04-24 06:54 53.30087 -2.73226 22198 ft 362 kts 293°
2026-04-24 06:55 53.30676 -2.75531 22445 ft 363 kts 290°
2026-04-24 06:55 53.31581 -2.79492 22906 ft 366 kts 289°
2026-04-24 06:55 53.32477 -2.83496 23502 ft 368 kts 289°
2026-04-24 06:55 53.33377 -2.87514 23965 ft 371 kts 289°
2026-04-24 06:56 53.34289 -2.91576 24361 ft 374 kts 289°
2026-04-24 06:56 53.35214 -2.95679 24726 ft 377 kts 289°
2026-04-24 06:56 53.36145 -2.99805 25116 ft 380 kts 289°
2026-04-24 06:56 53.37069 -3.03904 25476 ft 382 kts 289°
2026-04-24 06:57 53.38011 -3.08084 25848 ft 385 kts 291°
2026-04-24 06:57 53.39169 -3.12150 26172 ft 389 kts 302°
2026-04-24 06:57 53.40697 -3.15895 26475 ft 391 kts 310°
2026-04-24 06:57 53.42528 -3.19276 26886 ft 390 kts 316°
2026-04-24 06:58 53.44451 -3.22506 27367 ft 391 kts 316°
2026-04-24 06:58 53.46379 -3.25735 27787 ft 393 kts 316°
2026-04-24 06:58 53.48313 -3.29000 28162 ft 395 kts 316°
2026-04-24 06:58 53.50252 -3.32303 28535 ft 398 kts 316°
2026-04-24 06:59 53.52193 -3.35632 28914 ft 400 kts 316°
2026-04-24 06:59 53.54121 -3.38949 29290 ft 402 kts 316°
2026-04-24 06:59 53.56037 -3.42395 29638 ft 405 kts 311°
2026-04-24 06:59 53.57632 -3.46358 29967 ft 411 kts 301°
2026-04-24 07:00 53.58458 -3.49116 30172 ft 414 kts 296°
2026-04-24 07:00 53.59421 -3.53713 30469 ft 420 kts 288°
2026-04-24 07:00 53.60220 -3.58467 30730 ft 422 kts 289°
2026-04-24 07:00 53.61033 -3.63234 30981 ft 425 kts 288°
2026-04-24 07:01 53.61665 -3.68115 31292 ft 428 kts 282°
2026-04-24 07:01 53.61969 -3.73118 31611 ft 431 kts 277°
2026-04-24 07:01 53.62151 -3.78118 31878 ft 433 kts 277°
2026-04-24 07:01 53.62336 -3.83212 32124 ft 435 kts 277°
2026-04-24 07:02 53.62538 -3.88301 32381 ft 438 kts 277°
2026-04-24 07:02 53.62752 -3.93422 32632 ft 440 kts 277°
2026-04-24 07:02 53.62966 -3.98583 32841 ft 442 kts 277°
2026-04-24 07:02 53.63173 -4.03781 33074 ft 445 kts 277°
2026-04-24 07:03 53.63376 -4.08997 33277 ft 448 kts 277°
2026-04-24 07:03 53.63576 -4.14252 33469 ft 451 kts 277°
2026-04-24 07:03 53.63775 -4.19542 33632 ft 453 kts 276°
2026-04-24 07:03 53.63973 -4.24862 33812 ft 456 kts 276°
2026-04-24 07:04 53.64170 -4.30234 33922 ft 461 kts 276°
2026-04-24 07:04 53.64363 -4.35566 34032 ft 465 kts 276°
2026-04-24 07:04 53.64556 -4.41031 34205 ft 467 kts 275°
2026-04-24 07:04 53.64747 -4.46509 34415 ft 468 kts 275°
2026-04-24 07:05 53.64867 -4.49981 34540 ft 469 kts 275°
2026-04-24 07:05 53.65056 -4.55476 34724 ft 470 kts 275°
2026-04-24 07:05 53.65243 -4.60996 34882 ft 471 kts 275°
2026-04-24 07:06 53.65552 -4.70209 35071 ft 475 kts 274°
2026-04-24 07:06 53.65736 -4.75786 35219 ft 476 kts 274°
2026-04-24 07:06 53.65917 -4.81355 35379 ft 477 kts 274°
2026-04-24 07:06 53.66097 -4.86951 35524 ft 478 kts 274°
2026-04-24 07:07 53.66281 -4.92544 35649 ft 479 kts 274°
2026-04-24 07:07 53.66467 -4.98151 35769 ft 480 kts 274°
2026-04-24 07:07 53.66836 -5.09443 35988 ft 482 kts 274°
2026-04-24 07:08 53.67014 -5.15103 36096 ft 483 kts 274°
2026-04-24 07:08 53.67185 -5.20773 36171 ft 484 kts 274°
2026-04-24 07:08 53.67346 -5.26391 36677 ft 474 kts 272°
2026-04-24 07:08 53.67501 -5.31902 37102 ft 468 kts 272°
2026-04-24 07:09 53.67806 -5.42840 37120 ft 472 kts 272°
2026-04-24 07:09 53.68240 -5.53961 37195 ft 474 kts 276°
2026-04-24 07:10 53.68802 -5.61723 37241 ft 476 kts 277°
2026-04-24 07:10 53.69635 -5.72832 37270 ft 479 kts 277°
2026-04-24 07:11 53.70452 -5.83992 37458 ft 477 kts 277°
2026-04-24 07:11 53.71241 -5.95119 37497 ft 479 kts 276°
2026-04-24 07:12 53.72018 -6.06332 37581 ft 480 kts 276°
2026-04-24 07:12 53.72783 -6.17517 37724 ft 480 kts 276°
2026-04-24 07:13 53.73540 -6.28745 37659 ft 483 kts 276°
2026-04-24 07:13 53.74293 -6.40058 37684 ft 485 kts 276°
2026-04-24 07:14 53.75036 -6.51392 37724 ft 486 kts 276°
2026-04-24 07:14 53.75765 -6.62686 37799 ft 486 kts 276°
2026-04-24 07:15 53.76348 -6.71827 37856 ft 486 kts 276°
2026-04-24 07:15 53.77063 -6.83211 37867 ft 488 kts 275°
2026-04-24 07:16 53.77768 -6.94597 37995 ft 486 kts 275°
2026-04-24 07:16 53.78464 -7.06019 37974 ft 488 kts 275°
2026-04-24 07:17 53.79149 -7.17446 38101 ft 486 kts 275°
2026-04-24 07:17 53.79816 -7.28765 38123 ft 487 kts 275°
2026-04-24 07:18 53.80480 -7.40201 38041 ft 490 kts 274°
2026-04-24 07:18 53.81135 -7.51694 38055 ft 490 kts 274°
2026-04-24 07:19 53.81776 -7.63123 38069 ft 491 kts 274°
2026-04-24 07:19 53.82411 -7.74636 38130 ft 490 kts 274°
2026-04-24 07:20 53.82919 -7.84019 38108 ft 491 kts 274°
2026-04-24 07:20 53.83534 -7.95540 38085 ft 493 kts 274°
2026-04-24 07:21 53.84142 -8.07156 38070 ft 494 kts 274°
2026-04-24 07:21 53.84735 -8.18696 38080 ft 495 kts 274°
2026-04-24 07:22 53.85320 -8.30314 38096 ft 495 kts 273°
2026-04-24 07:22 53.85895 -8.41934 38121 ft 495 kts 273°
2026-04-24 07:23 53.86457 -8.53542 38219 ft 494 kts 273°
2026-04-24 07:23 53.87008 -8.65146 38233 ft 494 kts 273°
2026-04-24 07:24 53.87548 -8.76766 38254 ft 494 kts 272°
2026-04-24 07:24 53.88077 -8.88398 38277 ft 494 kts 272°
2026-04-24 07:25 53.88441 -8.96558 38273 ft 495 kts 272°
2026-04-24 07:25 53.88949 -9.08156 38203 ft 497 kts 272°
2026-04-24 07:26 53.89452 -9.19860 38204 ft 498 kts 272°
2026-04-24 07:26 53.89942 -9.31574 38228 ft 498 kts 272°
2026-04-24 07:27 53.90423 -9.43303 38223 ft 498 kts 272°
2026-04-24 07:27 53.90891 -9.55024 38231 ft 499 kts 271°
2026-04-24 07:28 53.91347 -9.66767 38235 ft 499 kts 271°
2026-04-24 07:28 53.91794 -9.78530 38247 ft 500 kts 271°
2026-04-24 07:29 53.92227 -9.90233 38251 ft 500 kts 271°
2026-04-24 07:29 53.92651 -10.02030 38306 ft 500 kts 271°
2026-04-24 07:30 53.92986 -10.11570 38320 ft 500 kts 271°
2026-04-24 07:30 53.93389 -10.23346 38319 ft 500 kts 271°
2026-04-24 07:31 53.93778 -10.35066 38316 ft 500 kts 271°
2026-04-24 07:31 53.94159 -10.46864 38324 ft 500 kts 270°
2026-04-24 07:32 53.94527 -10.58647 38364 ft 500 kts 270°
2026-04-24 07:32 53.94884 -10.70472 38298 ft 502 kts 270°
2026-04-24 07:33 53.95231 -10.82280 38237 ft 499 kts 270°
2026-04-24 07:33 53.95399 -10.88167 38086 ft 498 kts 270°
2026-04-24 07:33 53.95564 -10.94035 37901 ft 497 kts 270°
2026-04-24 07:34 53.95882 -11.05675 37854 ft 496 kts 270°
2026-04-24 07:34 53.96190 -11.17392 37908 ft 497 kts 270°
2026-04-24 07:35 53.96430 -11.26844 37913 ft 498 kts 269°
2026-04-24 07:35 53.96719 -11.38593 38055 ft 496 kts 270°
2026-04-24 07:36 53.96994 -11.50218 38191 ft 494 kts 269°
2026-04-24 07:36 53.97258 -11.61864 38266 ft 492 kts 269°
2026-04-24 07:37 53.97510 -11.73480 38283 ft 492 kts 269°
2026-04-24 07:37 53.97750 -11.85113 38269 ft 492 kts 269°
2026-04-24 07:38 53.97979 -11.96707 38265 ft 491 kts 269°
2026-04-24 07:38 53.98197 -12.08312 38259 ft 491 kts 269°
2026-04-24 07:39 53.98402 -12.19838 38282 ft 491 kts 268°
2026-04-24 07:39 53.98598 -12.31468 38254 ft 491 kts 268°
2026-04-24 07:40 53.98748 -12.40881 38253 ft 491 kts 268°
2026-04-24 07:40 53.98924 -12.52502 38248 ft 491 kts 268°
2026-04-24 07:41 53.99087 -12.64034 38248 ft 491 kts 268°
2026-04-24 07:41 53.99240 -12.75654 38258 ft 492 kts 268°
2026-04-24 07:42 53.99382 -12.87274 38249 ft 492 kts 268°
2026-04-24 07:42 53.99513 -12.98927 38230 ft 492 kts 268°
2026-04-24 07:43 53.99632 -13.10584 38238 ft 492 kts 268°
2026-04-24 07:43 53.99741 -13.22228 38226 ft 493 kts 268°
2026-04-24 07:44 53.99837 -13.33812 38235 ft 494 kts 267°
2026-04-24 07:44 53.99924 -13.45530 38219 ft 494 kts 267°
2026-04-24 07:45 53.99985 -13.54987 38231 ft 494 kts 267°
2026-04-24 07:45 54.00051 -13.66620 38213 ft 494 kts 267°
2026-04-24 07:46 54.00106 -13.78306 38220 ft 494 kts 267°
2026-04-24 07:46 54.00148 -13.89990 38209 ft 494 kts 266°
2026-04-24 07:47 54.00180 -14.01684 38212 ft 495 kts 266°
2026-04-24 07:47 54.00200 -14.13308 38198 ft 495 kts 266°
2026-04-24 07:48 54.00210 -14.25001 38194 ft 495 kts 266°
2026-04-24 07:48 54.00207 -14.36721 38216 ft 495 kts 266°
2026-04-24 07:49 54.00194 -14.48460 38190 ft 496 kts 266°
2026-04-24 07:49 54.00169 -14.60136 38186 ft 497 kts 266°
2026-04-24 07:50 54.00140 -14.69647 38174 ft 497 kts 266°
2026-04-24 07:50 54.00096 -14.81401 38178 ft 497 kts 266°
2026-04-24 07:51 54.00091 -14.93176 38179 ft 500 kts 270°
2026-04-24 07:51 54.01189 -15.04924 38179 ft 506 kts 281°
2026-04-24 07:52 54.03498 -15.16210 38168 ft 510 kts 288°
2026-04-24 07:52 54.06096 -15.27489 38172 ft 510 kts 288°
2026-04-24 07:53 54.08657 -15.38759 38156 ft 510 kts 288°
2026-04-24 07:53 54.11177 -15.50088 38184 ft 510 kts 288°
2026-04-24 07:54 54.13668 -15.61420 38160 ft 511 kts 287°
2026-04-24 07:54 54.16134 -15.72711 38178 ft 512 kts 287°
2026-04-24 07:55 54.17679 -15.79808 38168 ft 514 kts 287°
2026-04-24 07:55 54.20179 -15.91339 38144 ft 519 kts 287°
2026-04-24 07:56 54.22672 -16.02892 38127 ft 515 kts 287°
2026-04-24 07:56 54.25122 -16.14305 38154 ft 513 kts 287°
2026-04-24 07:57 54.27569 -16.25781 38139 ft 513 kts 287°
2026-04-24 07:57 54.30004 -16.37269 38137 ft 514 kts 287°
2026-04-24 07:58 54.32434 -16.48794 38140 ft 514 kts 287°
2026-04-24 07:58 54.34849 -16.60316 38145 ft 514 kts 286°
2026-04-24 07:59 54.37259 -16.71876 38144 ft 514 kts 286°
2026-04-24 07:59 54.39636 -16.83340 38138 ft 513 kts 286°
2026-04-24 08:00 54.41280 -16.91325 38219 ft 509 kts 287°
2026-04-24 08:00 54.43646 -17.02850 38138 ft 511 kts 286°
2026-04-24 08:01 54.45998 -17.14371 38134 ft 511 kts 286°
2026-04-24 08:01 54.48345 -17.25933 38123 ft 511 kts 285°
2026-04-24 08:02 54.49512 -17.31714 37336 ft 511 kts 287°
2026-04-24 08:02 54.50670 -17.37467 38213 ft 508 kts 285°
2026-04-24 08:02 54.52976 -17.48969 38148 ft 510 kts 285°
2026-04-24 08:03 54.55285 -17.60549 38127 ft 511 kts 285°
2026-04-24 08:03 54.57587 -17.72164 38108 ft 511 kts 285°
2026-04-24 08:04 54.59861 -17.83708 38115 ft 511 kts 285°
2026-04-24 08:04 54.62139 -17.95346 38104 ft 511 kts 285°
2026-04-24 08:05 54.63966 -18.04726 38105 ft 512 kts 285°
2026-04-24 08:05 54.66225 -18.16393 38115 ft 513 kts 285°
2026-04-24 08:06 54.67341 -18.22179 37293 ft 513 kts 286°
2026-04-24 08:06 54.68459 -18.28009 37409 ft 507 kts 288°
2026-04-24 08:06 54.69556 -18.33732 38346 ft 503 kts 285°
2026-04-24 08:06 54.70663 -18.39516 38212 ft 506 kts 284°
2026-04-24 08:07 54.72868 -18.51105 38130 ft 508 kts 284°
2026-04-24 08:07 54.75076 -18.62787 38108 ft 509 kts 284°
2026-04-24 08:08 54.76172 -18.68615 37291 ft 510 kts 286°
2026-04-24 08:08 54.77248 -18.74357 38228 ft 507 kts 284°
2026-04-24 08:08 54.78337 -18.80181 38108 ft 509 kts 284°
2026-04-24 08:09 54.80522 -18.91915 38074 ft 511 kts 284°
2026-04-24 08:09 54.82695 -19.03662 38102 ft 512 kts 284°
2026-04-24 08:10 54.84408 -19.12973 37258 ft 512 kts 284°
2026-04-24 08:10 54.85281 -19.17755 38175 ft 509 kts 284°
2026-04-24 08:10 54.86357 -19.23645 38079 ft 512 kts 284°
2026-04-24 08:11 54.88502 -19.35434 37258 ft 512 kts 285°
2026-04-24 08:11 54.89564 -19.41301 38180 ft 509 kts 284°
2026-04-24 08:11 54.90628 -19.47200 38084 ft 512 kts 284°
2026-04-24 08:12 54.92752 -19.59030 38063 ft 513 kts 284°
2026-04-24 08:12 54.94860 -19.70848 38083 ft 514 kts 283°
2026-04-24 08:13 54.96970 -19.82757 38084 ft 515 kts 283°
2026-04-24 08:13 54.99073 -19.94698 38072 ft 516 kts 283°
2026-04-24 08:14 55.01082 -20.06604 38087 ft 515 kts 281°
2026-04-24 08:14 55.02807 -20.18802 38072 ft 515 kts 279°
2026-04-24 08:15 55.04074 -20.28187 38079 ft 515 kts 279°
2026-04-24 08:15 55.05603 -20.39345 38066 ft 516 kts 280°
2026-04-24 08:16 55.07299 -20.51527 38066 ft 517 kts 280°
2026-04-24 08:16 55.08996 -20.63715 38066 ft 517 kts 280°
2026-04-24 08:17 55.10682 -20.75920 38077 ft 517 kts 280°
2026-04-24 08:17 55.12358 -20.88175 38065 ft 518 kts 279°
2026-04-24 08:18 55.14010 -21.00360 38076 ft 518 kts 279°
2026-04-24 08:18 55.15657 -21.12619 38048 ft 518 kts 279°
2026-04-24 08:19 55.17298 -21.24927 38050 ft 518 kts 279°
2026-04-24 08:19 55.18925 -21.37228 38095 ft 518 kts 279°
2026-04-24 08:20 55.20141 -21.46503 38058 ft 519 kts 279°
2026-04-24 08:20 55.21655 -21.58128 38072 ft 519 kts 279°
2026-04-24 08:21 55.23250 -21.70466 38060 ft 519 kts 279°
2026-04-24 08:21 55.24831 -21.82808 38059 ft 519 kts 279°
2026-04-24 08:22 55.26400 -21.95159 38052 ft 519 kts 279°
2026-04-24 08:22 55.27956 -22.07528 38077 ft 519 kts 279°
2026-04-24 08:23 55.29505 -22.19940 38053 ft 520 kts 279°
2026-04-24 08:23 55.31039 -22.32346 38059 ft 520 kts 278°
2026-04-24 08:24 55.32551 -22.44690 38057 ft 520 kts 278°
2026-04-24 08:24 55.34063 -22.57133 38066 ft 520 kts 279°
2026-04-24 08:25 55.35169 -22.66314 38055 ft 520 kts 278°
2026-04-24 08:25 55.36597 -22.78271 38061 ft 521 kts 279°
2026-04-24 08:26 55.38067 -22.90679 38069 ft 521 kts 279°
2026-04-24 08:26 55.39537 -23.03198 38059 ft 522 kts 278°
2026-04-24 08:27 55.40993 -23.15720 38071 ft 522 kts 278°
2026-04-24 08:27 55.42435 -23.28247 38059 ft 522 kts 278°
2026-04-24 08:28 55.43858 -23.40725 38058 ft 522 kts 278°
2026-04-24 08:28 55.45276 -23.53278 38063 ft 522 kts 278°
2026-04-24 08:29 55.46681 -23.65844 38064 ft 522 kts 278°
2026-04-24 08:29 55.48074 -23.78417 38061 ft 522 kts 278°
2026-04-24 08:30 55.49071 -23.87505 38075 ft 522 kts 278°
2026-04-24 08:30 55.50399 -23.99722 38069 ft 522 kts 278°
2026-04-24 08:31 55.51756 -24.12303 38061 ft 523 kts 278°
2026-04-24 08:31 55.53105 -24.24948 38078 ft 523 kts 278°
2026-04-24 08:32 55.54439 -24.37583 38065 ft 523 kts 278°
2026-04-24 08:32 55.55755 -24.50179 38066 ft 524 kts 278°
2026-04-24 08:33 55.57063 -24.62841 38078 ft 524 kts 278°
2026-04-24 08:33 55.58360 -24.75524 38088 ft 524 kts 278°
2026-04-24 08:34 55.59646 -24.88233 38085 ft 525 kts 278°
2026-04-24 08:34 55.60920 -25.00965 38085 ft 526 kts 277°
2026-04-24 08:35 55.61779 -25.09631 38064 ft 526 kts 277°
2026-04-24 08:35 55.63045 -25.22537 38065 ft 526 kts 277°
2026-04-24 08:36 55.64286 -25.35303 38081 ft 526 kts 277°
2026-04-24 08:36 55.65516 -25.48112 38089 ft 527 kts 277°
2026-04-24 08:37 55.66732 -25.60929 38099 ft 528 kts 277°
2026-04-24 08:37 55.67937 -25.73774 38074 ft 529 kts 277°
2026-04-24 08:38 55.69131 -25.86660 38084 ft 529 kts 277°
2026-04-24 08:38 55.70310 -25.99530 38078 ft 529 kts 277°
2026-04-24 08:39 55.71469 -26.12344 38103 ft 529 kts 278°
2026-04-24 08:39 55.72624 -26.25261 38091 ft 530 kts 278°
2026-04-24 08:40 55.73386 -26.33875 38099 ft 530 kts 277°
2026-04-24 08:40 55.74559 -26.47283 38101 ft 531 kts 277°
2026-04-24 08:41 55.75673 -26.60160 38078 ft 531 kts 277°
2026-04-24 08:41 55.76782 -26.73157 38083 ft 531 kts 277°
2026-04-24 08:42 55.77876 -26.86146 38118 ft 531 kts 277°
2026-04-24 08:42 55.78774 -26.96942 38099 ft 531 kts 277°
2026-04-24 08:43 55.79845 -27.09966 38102 ft 532 kts 277°
2026-04-24 08:43 55.80901 -27.22995 38089 ft 532 kts 277°
2026-04-24 08:44 55.81938 -27.35945 38096 ft 532 kts 277°
2026-04-24 08:44 55.82966 -27.48985 38114 ft 532 kts 277°
2026-04-24 08:45 55.83796 -27.59634 38098 ft 533 kts 277°
2026-04-24 08:45 55.84681 -27.71144 38094 ft 533 kts 277°
2026-04-24 08:46 55.85675 -27.84222 38089 ft 533 kts 277°
2026-04-24 08:46 55.86655 -27.97313 38097 ft 533 kts 277°
2026-04-24 08:47 55.87613 -28.10302 38103 ft 532 kts 276°
2026-04-24 08:47 55.88566 -28.23429 38111 ft 533 kts 277°
2026-04-24 08:48 55.89504 -28.36526 38124 ft 533 kts 277°
2026-04-24 08:48 55.90427 -28.49634 38105 ft 533 kts 276°
2026-04-24 08:49 55.91333 -28.62687 38119 ft 533 kts 276°
2026-04-24 08:49 55.92228 -28.75801 38110 ft 532 kts 276°
2026-04-24 08:50 55.92933 -28.86275 38118 ft 532 kts 276°
2026-04-24 08:50 55.93711 -28.98021 38135 ft 531 kts 276°
2026-04-24 08:51 55.94568 -29.11120 38111 ft 531 kts 276°
2026-04-24 08:51 55.95405 -29.24140 38122 ft 531 kts 276°
2026-04-24 08:52 55.96232 -29.37236 38119 ft 531 kts 276°
2026-04-24 08:52 55.97047 -29.50363 38131 ft 531 kts 276°
2026-04-24 08:53 55.97842 -29.63395 38133 ft 531 kts 276°
2026-04-24 08:53 55.98627 -29.76497 38137 ft 530 kts 276°
2026-04-24 08:54 55.99398 -29.89587 38131 ft 530 kts 276°
2026-04-24 08:54 56.00149 -30.02704 38150 ft 530 kts 275°
2026-04-24 08:55 56.00612 -30.13251 38146 ft 530 kts 274°
2026-04-24 08:55 56.01027 -30.24882 38138 ft 530 kts 273°
2026-04-24 08:56 56.01488 -30.38042 38145 ft 529 kts 274°
2026-04-24 08:56 56.01962 -30.51185 38149 ft 529 kts 274°
2026-04-24 08:57 56.02434 -30.64321 38150 ft 529 kts 274°
2026-04-24 08:57 56.02891 -30.77365 38142 ft 529 kts 273°
2026-04-24 08:58 56.03336 -30.90515 38160 ft 529 kts 273°
2026-04-24 08:58 56.03765 -31.03670 38159 ft 529 kts 273°
2026-04-24 08:59 56.04179 -31.16795 38154 ft 529 kts 273°
2026-04-24 08:59 56.04580 -31.29934 38163 ft 529 kts 273°
2026-04-24 09:00 56.04895 -31.40610 38171 ft 529 kts 273°
2026-04-24 09:00 56.05268 -31.53660 38164 ft 529 kts 273°
2026-04-24 09:01 56.05629 -31.66787 38175 ft 529 kts 272°
2026-04-24 09:01 56.05977 -31.79979 38172 ft 529 kts 272°
2026-04-24 09:02 56.06312 -31.93156 38172 ft 529 kts 272°
2026-04-24 09:02 56.06631 -32.06323 38183 ft 530 kts 272°
2026-04-24 09:03 56.06937 -32.19499 38178 ft 530 kts 272°
2026-04-24 09:03 56.07230 -32.32687 38187 ft 530 kts 272°
2026-04-24 09:04 56.07508 -32.45878 38188 ft 530 kts 272°
2026-04-24 09:04 56.07770 -32.58996 38183 ft 531 kts 272°
2026-04-24 09:05 56.07974 -32.69669 38176 ft 531 kts 272°
2026-04-24 09:05 56.08213 -32.82892 38196 ft 531 kts 272°
2026-04-24 09:06 56.08438 -32.96119 38182 ft 532 kts 272°
2026-04-24 09:06 56.08648 -33.09296 38206 ft 531 kts 272°
2026-04-24 09:07 56.08845 -33.22540 38188 ft 532 kts 272°
2026-04-24 09:07 56.09113 -33.42341 38193 ft 533 kts 272°
2026-04-24 09:08 56.09277 -33.55726 38200 ft 533 kts 271°
2026-04-24 09:08 56.09423 -33.68931 38197 ft 533 kts 272°
2026-04-24 09:09 56.09557 -33.82196 38212 ft 532 kts 272°
2026-04-24 09:09 56.09676 -33.95419 38197 ft 533 kts 272°
2026-04-24 09:10 56.09760 -34.05965 38218 ft 533 kts 271°
2026-04-24 09:10 56.09854 -34.19251 38207 ft 533 kts 271°
2026-04-24 09:11 56.09934 -34.32536 38211 ft 533 kts 271°
2026-04-24 09:11 56.09999 -34.45823 38219 ft 533 kts 271°
2026-04-24 09:12 56.10050 -34.59080 38198 ft 533 kts 271°
2026-04-24 09:12 56.10086 -34.72259 38216 ft 532 kts 271°
2026-04-24 09:13 56.10109 -34.85516 38216 ft 532 kts 271°
2026-04-24 09:13 56.10117 -34.98773 38223 ft 531 kts 271°
2026-04-24 09:14 56.10112 -35.12009 38219 ft 531 kts 271°
2026-04-24 09:14 56.10091 -35.25277 38229 ft 531 kts 271°
2026-04-24 09:15 56.10065 -35.35774 38223 ft 531 kts 271°
2026-04-24 09:15 56.10020 -35.49025 38225 ft 531 kts 270°
2026-04-24 09:16 56.09960 -35.62274 38220 ft 531 kts 270°
2026-04-24 09:16 56.09887 -35.75511 38235 ft 531 kts 270°
2026-04-24 09:17 56.09800 -35.88664 38228 ft 531 kts 270°
2026-04-24 09:17 56.09697 -36.01914 38231 ft 531 kts 270°
2026-04-24 09:18 56.09581 -36.15159 38228 ft 531 kts 270°
2026-04-24 09:18 56.09451 -36.28391 38245 ft 531 kts 270°
2026-04-24 09:19 56.09306 -36.41641 38233 ft 531 kts 270°
2026-04-24 09:19 56.09148 -36.54861 38243 ft 531 kts 270°
2026-04-24 09:20 56.09009 -36.65602 38232 ft 531 kts 270°
2026-04-24 09:20 56.08825 -36.78813 38242 ft 531 kts 270°
2026-04-24 09:21 56.08627 -36.92042 38241 ft 531 kts 270°
2026-04-24 09:21 56.08416 -37.05190 38239 ft 531 kts 269°
2026-04-24 09:22 56.08189 -37.18400 38258 ft 530 kts 269°
2026-04-24 09:22 56.07949 -37.31616 38241 ft 530 kts 269°
2026-04-24 09:23 56.07694 -37.44823 38233 ft 531 kts 269°
2026-04-24 09:23 56.07425 -37.58051 38243 ft 530 kts 269°
2026-04-24 09:24 56.07145 -37.71165 38248 ft 531 kts 269°
2026-04-24 09:24 56.06848 -37.84372 38249 ft 531 kts 269°
2026-04-24 09:25 56.06598 -37.95040 38246 ft 531 kts 269°
2026-04-24 09:25 56.06275 -38.08262 38246 ft 532 kts 269°
2026-04-24 09:26 56.05939 -38.21470 38249 ft 532 kts 269°
2026-04-24 09:26 56.05587 -38.34703 38243 ft 532 kts 269°
2026-04-24 09:27 56.05222 -38.47923 38241 ft 532 kts 268°
2026-04-24 09:27 56.04907 -38.58923 38241 ft 532 kts 269°
2026-04-24 09:28 56.04452 -38.74260 38245 ft 532 kts 269°
2026-04-24 09:28 56.04111 -38.85336 38247 ft 532 kts 268°
2026-04-24 09:29 56.03695 -38.98455 38253 ft 532 kts 268°
2026-04-24 09:29 56.03261 -39.11698 38253 ft 532 kts 268°
2026-04-24 09:30 56.02825 -39.24560 38259 ft 532 kts 268°
2026-04-24 09:30 56.02442 -39.35535 38259 ft 533 kts 268°
2026-04-24 09:31 56.01968 -39.48770 38251 ft 533 kts 268°
2026-04-24 09:31 56.01480 -39.62013 38249 ft 532 kts 268°
2026-04-24 09:32 56.00979 -39.75204 38256 ft 532 kts 268°
2026-04-24 09:32 56.00465 -39.88425 38252 ft 533 kts 268°
2026-04-24 09:33 55.99732 -40.01610 38256 ft 534 kts 261°
2026-04-24 09:33 55.97926 -40.14429 38267 ft 535 kts 256°
2026-04-24 09:34 55.95891 -40.27230 38263 ft 536 kts 256°
2026-04-24 09:34 55.94125 -40.38452 38256 ft 536 kts 256°
2026-04-24 09:35 55.93873 -40.40066 38252 ft 536 kts 256°
2026-04-24 09:35 55.91877 -40.52906 38260 ft 536 kts 256°
2026-04-24 09:36 55.89909 -40.65542 38255 ft 536 kts 256°
2026-04-24 09:36 55.88250 -40.76116 38235 ft 536 kts 256°
2026-04-24 09:37 55.86225 -40.88912 38215 ft 537 kts 256°
2026-04-24 09:37 55.84201 -41.01603 38256 ft 536 kts 256°
2026-04-24 09:38 55.82147 -41.14381 38256 ft 536 kts 256°
2026-04-24 09:38 55.80080 -41.27141 38253 ft 537 kts 256°
2026-04-24 09:39 55.78001 -41.39885 38251 ft 537 kts 256°
2026-04-24 09:39 55.75902 -41.52659 38244 ft 537 kts 255°
2026-04-24 09:40 55.74198 -41.62956 38263 ft 537 kts 255°
2026-04-24 09:40 55.72104 -41.75524 38246 ft 537 kts 255°
2026-04-24 09:41 55.69975 -41.88218 38248 ft 537 kts 255°
2026-04-24 09:41 55.67831 -42.00906 38245 ft 536 kts 255°
2026-04-24 09:42 55.65675 -42.13574 38249 ft 536 kts 255°
2026-04-24 09:42 55.63525 -42.26116 38246 ft 536 kts 255°
2026-04-24 09:43 55.61336 -42.38800 38247 ft 536 kts 255°
2026-04-24 09:43 55.59156 -42.51341 38248 ft 536 kts 255°
2026-04-24 09:44 55.56951 -42.63937 38239 ft 536 kts 255°
2026-04-24 09:44 55.54732 -42.76524 38250 ft 536 kts 255°
2026-04-24 09:45 55.52949 -42.86577 38230 ft 536 kts 255°
2026-04-24 09:45 55.50708 -42.99131 38244 ft 536 kts 256°
2026-04-24 09:46 55.48455 -43.11671 38250 ft 536 kts 255°
2026-04-24 09:46 55.46184 -43.24223 38246 ft 536 kts 255°
2026-04-24 09:47 55.43903 -43.36747 38249 ft 536 kts 255°
2026-04-24 09:47 55.41625 -43.49166 38250 ft 536 kts 255°
2026-04-24 09:48 55.40080 -43.57542 38236 ft 536 kts 255°
2026-04-24 09:48 55.37767 -43.70014 38243 ft 536 kts 255°
2026-04-24 09:49 55.35437 -43.82494 38244 ft 536 kts 255°
2026-04-24 09:49 55.33098 -43.94940 38225 ft 537 kts 255°
2026-04-24 09:50 55.31209 -44.04935 38240 ft 536 kts 255°
2026-04-24 09:50 55.28862 -44.17276 38232 ft 536 kts 255°
2026-04-24 09:51 55.26491 -44.29665 38233 ft 535 kts 255°
2026-04-24 09:51 55.24108 -44.42033 38231 ft 535 kts 255°
2026-04-24 09:52 55.21714 -44.54381 38219 ft 534 kts 255°
2026-04-24 09:52 55.19307 -44.66716 38223 ft 534 kts 254°
2026-04-24 09:53 55.16910 -44.78924 38225 ft 533 kts 254°
2026-04-24 09:53 55.14485 -44.91196 38191 ft 532 kts 254°
2026-04-24 09:54 55.12058 -45.03404 38218 ft 532 kts 254°
2026-04-24 09:54 55.09617 -45.15604 38216 ft 530 kts 253°
2026-04-24 09:55 55.07960 -45.23838 38218 ft 530 kts 253°
2026-04-24 09:55 55.05505 -45.35981 38211 ft 530 kts 253°
2026-04-24 09:56 55.03049 -45.48059 38267 ft 527 kts 253°
2026-04-24 09:56 55.00578 -45.60138 38201 ft 529 kts 253°
2026-04-24 09:57 54.98094 -45.72197 38205 ft 529 kts 253°
2026-04-24 09:57 54.95597 -45.84251 38200 ft 529 kts 253°
2026-04-24 09:58 54.93086 -45.96301 38195 ft 529 kts 253°
2026-04-24 09:58 54.90565 -46.08326 38195 ft 529 kts 252°
2026-04-24 09:59 54.88053 -46.20239 38193 ft 528 kts 252°
2026-04-24 09:59 54.85514 -46.32207 38193 ft 526 kts 252°
2026-04-24 10:00 54.83470 -46.41793 38174 ft 525 kts 252°
2026-04-24 10:00 54.80942 -46.53585 38189 ft 524 kts 251°
2026-04-24 10:01 54.79667 -46.59505 37379 ft 523 kts 250°
2026-04-24 10:01 54.78398 -46.65383 38277 ft 520 kts 251°
2026-04-24 10:01 54.75845 -46.77156 38182 ft 523 kts 251°
2026-04-24 10:02 54.73272 -46.88952 38158 ft 524 kts 251°
2026-04-24 10:02 54.70698 -47.00687 38167 ft 524 kts 251°
2026-04-24 10:03 54.68097 -47.12478 38152 ft 525 kts 250°
2026-04-24 10:03 54.65484 -47.24258 38146 ft 525 kts 250°
2026-04-24 10:04 54.62858 -47.36025 38146 ft 525 kts 250°
2026-04-24 10:04 54.60224 -47.47767 38134 ft 524 kts 250°
2026-04-24 10:05 54.59415 -47.51359 37340 ft 524 kts 249°
2026-04-24 10:05 54.58102 -47.57175 38201 ft 521 kts 249°
2026-04-24 10:05 54.55468 -47.68799 38125 ft 523 kts 249°
2026-04-24 10:06 54.51479 -47.86279 38116 ft 523 kts 249°
2026-04-24 10:07 54.48804 -47.97922 38131 ft 523 kts 249°
2026-04-24 10:07 54.46116 -48.09555 38108 ft 522 kts 249°
2026-04-24 10:08 54.43436 -48.21093 38116 ft 521 kts 249°
2026-04-24 10:08 54.40733 -48.32665 38097 ft 521 kts 248°
2026-04-24 10:09 54.38020 -48.44218 38102 ft 521 kts 248°
2026-04-24 10:09 54.35319 -48.55660 38096 ft 521 kts 248°
2026-04-24 10:10 54.33346 -48.63979 37295 ft 521 kts 248°
2026-04-24 10:10 54.32088 -48.69262 38134 ft 519 kts 248°
2026-04-24 10:10 54.30721 -48.74994 38084 ft 520 kts 248°
2026-04-24 10:11 54.27974 -48.86468 38129 ft 519 kts 248°
2026-04-24 10:11 54.25221 -48.97903 38078 ft 520 kts 248°
2026-04-24 10:12 54.22452 -49.09348 38076 ft 522 kts 248°
2026-04-24 10:12 54.19677 -49.20754 38069 ft 523 kts 248°
2026-04-24 10:13 54.16870 -49.32234 38072 ft 524 kts 247°
2026-04-24 10:13 54.14042 -49.43734 38058 ft 524 kts 247°
2026-04-24 10:14 54.11212 -49.55187 38059 ft 524 kts 247°
2026-04-24 10:14 54.08849 -49.64705 38052 ft 524 kts 247°
2026-04-24 10:15 54.06067 -49.75859 38057 ft 524 kts 246°
2026-04-24 10:15 54.03677 -49.85398 38048 ft 523 kts 246°
2026-04-24 10:16 54.00816 -49.96770 38032 ft 523 kts 246°
2026-04-24 10:16 53.98001 -50.08087 38486 ft 522 kts 246°
2026-04-24 10:16 53.96612 -50.13836 38243 ft 525 kts 246°
2026-04-24 10:17 53.95237 -50.19561 38132 ft 522 kts 246°
2026-04-24 10:17 53.92507 -50.30888 38028 ft 515 kts 245°
2026-04-24 10:18 53.89796 -50.42016 38019 ft 510 kts 245°
2026-04-24 10:18 53.87065 -50.53127 38021 ft 511 kts 245°
2026-04-24 10:19 53.84307 -50.64284 38016 ft 514 kts 245°
2026-04-24 10:19 53.81531 -50.75458 38012 ft 515 kts 245°
2026-04-24 10:20 53.79290 -50.84444 38016 ft 517 kts 245°
2026-04-24 10:20 53.76827 -50.94278 38001 ft 518 kts 245°
2026-04-24 10:21 53.74004 -51.05499 37996 ft 519 kts 245°
2026-04-24 10:21 53.71174 -51.16690 37986 ft 520 kts 245°
2026-04-24 10:22 53.68311 -51.27956 37985 ft 520 kts 244°
2026-04-24 10:22 53.65447 -51.39166 37977 ft 521 kts 244°
2026-04-24 10:23 53.62586 -51.50309 37974 ft 521 kts 244°
2026-04-24 10:23 53.59697 -51.61506 37969 ft 521 kts 244°
2026-04-24 10:24 53.56798 -51.72683 37964 ft 521 kts 244°
2026-04-24 10:24 53.53909 -51.83771 37976 ft 520 kts 244°
2026-04-24 10:25 53.51604 -51.92576 37957 ft 520 kts 244°
2026-04-24 10:25 53.48636 -52.03865 37957 ft 519 kts 244°
2026-04-24 10:26 53.45705 -52.14959 37950 ft 519 kts 244°
2026-04-24 10:26 53.42782 -52.25969 37962 ft 519 kts 244°
2026-04-24 10:27 53.39836 -52.37011 37945 ft 518 kts 244°
2026-04-24 10:27 53.36883 -52.48025 37932 ft 518 kts 244°
2026-04-24 10:28 53.33920 -52.59024 37936 ft 518 kts 244°
2026-04-24 10:28 53.30965 -52.69942 37930 ft 518 kts 244°
2026-04-24 10:29 53.27984 -52.80901 37936 ft 518 kts 243°
2026-04-24 10:29 53.24988 -52.91865 37932 ft 518 kts 243°
2026-04-24 10:30 53.22599 -53.00572 37928 ft 518 kts 243°
2026-04-24 10:30 53.19903 -53.10351 37922 ft 519 kts 243°
2026-04-24 10:31 53.16879 -53.21282 37923 ft 519 kts 243°
2026-04-24 10:31 53.15370 -53.26722 37476 ft 516 kts 241°
2026-04-24 10:31 53.13884 -53.32067 37695 ft 513 kts 240°
2026-04-24 10:32 53.10876 -53.42831 37939 ft 510 kts 240°
2026-04-24 10:32 53.07861 -53.53565 37938 ft 513 kts 240°
2026-04-24 10:33 53.04819 -53.64349 37920 ft 516 kts 240°
2026-04-24 10:33 53.01758 -53.75153 37922 ft 517 kts 240°
2026-04-24 10:34 52.98679 -53.85974 37918 ft 519 kts 240°
2026-04-24 10:34 52.95595 -53.96764 37914 ft 520 kts 240°
2026-04-24 10:35 52.93167 -54.05223 37910 ft 521 kts 239°
2026-04-24 10:35 52.90325 -54.15085 37908 ft 522 kts 239°
2026-04-24 10:36 52.87180 -54.25953 37895 ft 523 kts 239°
2026-04-24 10:36 52.84047 -54.36732 37894 ft 522 kts 239°
2026-04-24 10:37 52.80890 -54.47543 37904 ft 521 kts 239°
2026-04-24 10:37 52.77726 -54.58327 37892 ft 520 kts 239°
2026-04-24 10:38 52.74563 -54.69055 37927 ft 519 kts 238°
2026-04-24 10:38 52.71411 -54.79703 37904 ft 518 kts 238°
2026-04-24 10:39 52.68236 -54.90379 37901 ft 517 kts 238°
2026-04-24 10:39 52.65057 -55.01020 37901 ft 516 kts 238°
2026-04-24 10:40 52.62645 -55.09061 37905 ft 516 kts 238°
2026-04-24 10:40 52.59699 -55.18845 37906 ft 516 kts 238°
2026-04-24 10:41 52.56504 -55.29419 37907 ft 515 kts 237°
2026-04-24 10:41 52.53304 -55.39959 37895 ft 514 kts 237°
2026-04-24 10:42 52.50117 -55.50411 37889 ft 514 kts 237°
2026-04-24 10:42 52.46904 -55.60901 37816 ft 514 kts 237°
2026-04-24 10:43 52.43687 -55.71369 37774 ft 514 kts 237°
2026-04-24 10:43 52.40287 -55.81627 37726 ft 507 kts 230°
2026-04-24 10:44 52.36009 -55.90575 37721 ft 497 kts 220°
2026-04-24 10:44 52.31251 -55.98807 37752 ft 497 kts 220°
2026-04-24 10:45 52.27719 -56.04923 37762 ft 498 kts 220°
2026-04-24 10:45 52.23183 -56.12817 37791 ft 498 kts 221°
2026-04-24 10:46 52.18475 -56.21031 37824 ft 499 kts 221°
2026-04-24 10:46 52.13724 -56.29303 37926 ft 499 kts 220°
2026-04-24 10:47 52.08964 -56.37557 37884 ft 500 kts 220°
2026-04-24 10:47 52.04184 -56.45815 37889 ft 500 kts 220°
2026-04-24 10:48 51.99435 -56.53992 37884 ft 500 kts 220°
2026-04-24 10:48 51.94646 -56.62212 37912 ft 501 kts 220°
2026-04-24 10:49 51.89839 -56.70431 37883 ft 502 kts 220°
2026-04-24 10:49 51.85061 -56.78576 37860 ft 502 kts 220°
2026-04-24 10:50 51.81555 -56.84536 37880 ft 502 kts 220°
2026-04-24 10:50 51.76909 -56.92411 37900 ft 502 kts 220°
2026-04-24 10:51 51.72077 -57.00579 37838 ft 503 kts 220°
2026-04-24 10:51 51.67231 -57.08741 37801 ft 503 kts 220°
2026-04-24 10:52 51.62412 -57.16830 37764 ft 503 kts 220°
2026-04-24 10:52 51.57554 -57.24957 37733 ft 503 kts 220°
2026-04-24 10:53 51.52694 -57.33061 37714 ft 503 kts 220°
2026-04-24 10:53 51.47823 -57.41155 37708 ft 503 kts 220°
2026-04-24 10:54 51.42985 -57.49170 37709 ft 503 kts 220°
2026-04-24 10:54 51.38103 -57.57233 37716 ft 503 kts 220°
2026-04-24 10:55 51.34637 -57.62940 37717 ft 503 kts 220°
2026-04-24 10:55 51.29840 -57.70817 37723 ft 503 kts 220°
2026-04-24 10:56 51.24981 -57.78770 37728 ft 503 kts 220°
2026-04-24 10:56 51.20088 -57.86754 37750 ft 504 kts 220°
2026-04-24 10:57 51.15173 -57.94746 37740 ft 504 kts 219°
2026-04-24 10:57 51.10255 -58.02718 37736 ft 504 kts 219°
2026-04-24 10:58 51.05365 -58.10619 37746 ft 504 kts 219°
2026-04-24 10:58 51.00436 -58.18558 37735 ft 505 kts 219°
2026-04-24 10:59 50.95491 -58.26497 37751 ft 505 kts 219°
2026-04-24 10:59 50.90541 -58.34419 37760 ft 505 kts 219°
2026-04-24 11:00 50.87243 -58.39684 37782 ft 505 kts 219°
2026-04-24 11:00 50.82188 -58.47727 37782 ft 505 kts 219°
2026-04-24 11:01 50.77220 -58.55611 37781 ft 505 kts 219°
2026-04-24 11:01 50.72253 -58.63468 37774 ft 505 kts 219°
2026-04-24 11:02 50.67284 -58.71302 37821 ft 505 kts 219°
2026-04-24 11:02 50.62298 -58.79136 37801 ft 506 kts 219°
2026-04-24 11:03 50.57342 -58.86901 37791 ft 506 kts 219°
2026-04-24 11:03 50.52342 -58.94710 37799 ft 505 kts 219°
2026-04-24 11:04 50.48188 -59.01179 37833 ft 506 kts 219°
2026-04-24 11:04 50.43169 -59.08969 37821 ft 506 kts 219°
2026-04-24 11:05 50.39069 -59.15317 37821 ft 507 kts 219°
2026-04-24 11:05 50.34690 -59.22077 37822 ft 508 kts 218°
2026-04-24 11:06 50.29644 -59.29847 37846 ft 509 kts 218°
2026-04-24 11:06 50.24581 -59.37616 37843 ft 510 kts 218°
2026-04-24 11:07 50.16955 -59.49274 37840 ft 512 kts 218°
2026-04-24 11:07 50.11881 -59.57000 37854 ft 513 kts 218°
2026-04-24 11:08 50.06755 -59.64782 37849 ft 514 kts 218°
2026-04-24 11:08 50.01619 -59.72554 37850 ft 515 kts 218°
2026-04-24 11:09 49.96471 -59.80319 37854 ft 516 kts 218°
2026-04-24 11:09 49.91322 -59.88061 37859 ft 517 kts 219°
2026-04-24 11:10 49.87692 -59.93503 37859 ft 518 kts 218°
2026-04-24 11:10 49.82527 -60.01229 37860 ft 518 kts 218°
2026-04-24 11:11 49.77333 -60.08975 37860 ft 518 kts 218°
2026-04-24 11:11 49.72126 -60.16714 37872 ft 519 kts 219°
2026-04-24 11:12 49.66910 -60.24441 37870 ft 519 kts 219°
2026-04-24 11:12 49.61727 -60.32097 37877 ft 519 kts 219°
2026-04-24 11:13 49.56499 -60.39795 37880 ft 519 kts 218°
2026-04-24 11:13 49.51262 -60.47483 37881 ft 519 kts 218°
2026-04-24 11:14 49.46057 -60.55098 37888 ft 519 kts 218°
2026-04-24 11:14 49.40816 -60.62744 37924 ft 518 kts 218°
2026-04-24 11:15 49.37212 -60.67986 37918 ft 519 kts 219°
2026-04-24 11:15 49.31963 -60.75604 37914 ft 519 kts 219°
2026-04-24 11:16 49.26708 -60.83208 37889 ft 520 kts 219°
2026-04-24 11:16 49.21474 -60.90757 37919 ft 520 kts 219°
2026-04-24 11:17 49.16195 -60.98346 37910 ft 521 kts 219°
2026-04-24 11:17 49.10904 -61.05931 37908 ft 521 kts 219°
2026-04-24 11:18 49.05610 -61.13498 37908 ft 521 kts 219°
2026-04-24 11:18 49.00337 -61.21008 37921 ft 522 kts 219°
2026-04-24 11:19 48.95017 -61.28565 37919 ft 522 kts 219°
2026-04-24 11:19 48.89694 -61.36103 37920 ft 522 kts 219°
2026-04-24 11:20 48.86016 -61.41297 37944 ft 522 kts 219°
2026-04-24 11:20 48.80690 -61.48799 37925 ft 522 kts 219°
2026-04-24 11:21 48.75359 -61.56289 37930 ft 521 kts 219°
2026-04-24 11:21 48.70062 -61.63706 37926 ft 521 kts 219°
2026-04-24 11:22 48.64726 -61.71153 37937 ft 521 kts 220°
2026-04-24 11:22 48.59387 -61.78586 37928 ft 521 kts 219°
2026-04-24 11:23 48.54055 -61.85985 37941 ft 520 kts 219°
2026-04-24 11:23 48.48712 -61.93376 37952 ft 520 kts 220°
2026-04-24 11:24 48.43406 -62.00695 37942 ft 520 kts 220°
2026-04-24 11:24 48.38059 -62.08049 37941 ft 520 kts 220°
2026-04-24 11:25 48.34334 -62.13158 37945 ft 520 kts 220°
2026-04-24 11:25 48.28988 -62.20473 37952 ft 520 kts 220°
2026-04-24 11:26 48.23637 -62.27775 37950 ft 519 kts 220°
2026-04-24 11:26 48.18280 -62.35062 37950 ft 519 kts 220°
2026-04-24 11:27 48.12920 -62.42331 37953 ft 519 kts 220°
2026-04-24 11:27 48.07593 -62.49535 37958 ft 519 kts 220°
2026-04-24 11:28 48.02225 -62.56773 37956 ft 518 kts 220°
2026-04-24 11:28 47.96860 -62.63987 37985 ft 518 kts 220°
2026-04-24 11:29 47.91497 -62.71175 37976 ft 518 kts 220°
2026-04-24 11:29 47.86133 -62.78346 37972 ft 518 kts 220°
2026-04-24 11:30 47.82390 -62.83335 37979 ft 517 kts 220°
2026-04-24 11:30 47.77060 -62.90425 37976 ft 517 kts 220°
2026-04-24 11:31 47.71686 -62.97552 37977 ft 517 kts 220°
2026-04-24 11:31 47.66310 -63.04662 37978 ft 517 kts 220°
2026-04-24 11:32 47.60926 -63.11761 37982 ft 517 kts 220°
2026-04-24 11:32 47.55545 -63.18837 37967 ft 517 kts 220°
2026-04-24 11:33 47.50190 -63.25859 37982 ft 517 kts 220°
2026-04-24 11:33 47.44791 -63.32917 37990 ft 517 kts 221°
2026-04-24 11:34 47.39394 -63.39952 37969 ft 517 kts 221°
2026-04-24 11:34 47.34032 -63.46924 37961 ft 517 kts 221°
2026-04-24 11:35 47.30329 -63.51725 37986 ft 516 kts 221°
2026-04-24 11:35 47.24920 -63.58723 37970 ft 516 kts 221°
2026-04-24 11:36 47.19548 -63.65654 37966 ft 516 kts 221°
2026-04-24 11:36 47.14146 -63.72605 37974 ft 516 kts 221°
2026-04-24 11:37 47.08726 -63.79557 37970 ft 516 kts 221°
2026-04-24 11:37 47.03314 -63.86481 37966 ft 516 kts 221°
2026-04-24 11:38 46.97930 -63.93350 37971 ft 516 kts 221°
2026-04-24 11:38 46.92516 -64.00237 37971 ft 515 kts 221°
2026-04-24 11:39 46.87099 -64.07111 37968 ft 515 kts 221°
2026-04-24 11:39 46.81669 -64.13980 37962 ft 515 kts 221°
2026-04-24 11:40 46.77901 -64.18735 37964 ft 515 kts 221°
2026-04-24 11:40 46.72470 -64.25574 37966 ft 515 kts 221°
2026-04-24 11:41 46.67073 -64.32352 37983 ft 515 kts 221°
2026-04-24 11:41 46.61647 -64.39148 37967 ft 515 kts 221°
2026-04-24 11:42 46.56216 -64.45930 37962 ft 514 kts 221°
2026-04-24 11:42 46.50774 -64.52708 37981 ft 514 kts 221°
2026-04-24 11:43 46.45339 -64.59459 37980 ft 514 kts 221°
2026-04-24 11:43 46.39902 -64.66193 37976 ft 514 kts 221°
2026-04-24 11:44 46.34487 -64.72883 37983 ft 514 kts 221°
2026-04-24 11:44 46.29044 -64.79589 37982 ft 514 kts 221°
2026-04-24 11:45 46.25350 -64.84129 37976 ft 514 kts 221°
2026-04-24 11:45 46.19897 -64.90816 37969 ft 514 kts 222°
2026-04-24 11:46 46.14472 -64.97453 37974 ft 514 kts 221°
2026-04-24 11:46 46.09009 -65.04117 37976 ft 514 kts 221°
2026-04-24 11:47 46.03545 -65.10765 37974 ft 514 kts 221°
2026-04-24 11:47 45.98061 -65.17418 37974 ft 514 kts 221°
2026-04-24 11:48 45.92621 -65.24001 37974 ft 514 kts 221°
2026-04-24 11:48 45.87138 -65.30617 37971 ft 514 kts 221°
2026-04-24 11:49 45.81653 -65.37219 37975 ft 514 kts 221°
2026-04-24 11:49 45.76174 -65.43797 37974 ft 514 kts 221°
2026-04-24 11:50 45.72516 -65.48178 37972 ft 513 kts 222°
2026-04-24 11:50 45.67051 -65.54710 37977 ft 513 kts 222°
2026-04-24 11:51 45.62489 -65.60149 37978 ft 513 kts 221°
2026-04-24 11:51 45.56995 -65.66684 37980 ft 513 kts 221°
2026-04-24 11:52 45.51502 -65.73199 37981 ft 513 kts 222°
2026-04-24 11:52 45.46011 -65.79696 37992 ft 513 kts 222°
2026-04-24 11:53 45.40540 -65.86153 37990 ft 513 kts 222°
2026-04-24 11:53 45.35033 -65.92634 37987 ft 513 kts 222°
2026-04-24 11:54 45.29522 -65.99104 37991 ft 513 kts 222°
2026-04-24 11:54 45.24011 -66.05557 37988 ft 513 kts 222°
2026-04-24 11:55 45.20228 -66.09976 37980 ft 513 kts 222°
2026-04-24 11:55 45.14714 -66.16404 37984 ft 513 kts 222°
2026-04-24 11:56 45.09235 -66.22776 37978 ft 513 kts 222°
2026-04-24 11:56 45.03711 -66.29183 37969 ft 512 kts 222°
2026-04-24 11:57 44.98192 -66.35567 37976 ft 512 kts 222°
2026-04-24 11:57 44.92672 -66.41936 37974 ft 512 kts 222°
2026-04-24 11:58 44.87176 -66.48261 37961 ft 512 kts 222°
2026-04-24 11:58 44.81653 -66.54602 37970 ft 512 kts 222°
2026-04-24 11:59 44.76124 -66.60933 37968 ft 512 kts 222°
2026-04-24 11:59 44.70595 -66.67248 37954 ft 512 kts 223°
2026-04-24 12:00 44.66754 -66.71626 37964 ft 512 kts 223°
2026-04-24 12:00 44.61246 -66.77890 37972 ft 511 kts 223°
2026-04-24 12:01 44.55704 -66.84179 37959 ft 512 kts 223°
2026-04-24 12:01 44.50166 -66.90449 37964 ft 512 kts 223°
2026-04-24 12:02 44.44713 -66.96839 37959 ft 507 kts 230°
2026-04-24 12:02 44.40653 -67.04675 37978 ft 497 kts 245°
2026-04-24 12:03 44.38130 -67.13595 37953 ft 492 kts 254°
2026-04-24 12:03 44.35928 -67.22666 37962 ft 493 kts 254°
2026-04-24 12:04 44.33681 -67.31732 37950 ft 494 kts 254°
2026-04-24 12:04 44.31386 -67.40798 37951 ft 495 kts 253°
2026-04-24 12:05 44.29798 -67.47006 37948 ft 495 kts 253°
2026-04-24 12:05 44.27478 -67.56051 37951 ft 494 kts 254°
2026-04-24 12:06 44.25154 -67.65086 37938 ft 494 kts 254°
2026-04-24 12:06 44.22829 -67.74099 37952 ft 494 kts 254°
2026-04-24 12:07 44.20509 -67.83056 37939 ft 493 kts 253°
2026-04-24 12:07 44.18172 -67.92043 37927 ft 493 kts 254°
2026-04-24 12:08 44.15831 -68.01013 37939 ft 492 kts 254°
2026-04-24 12:08 44.13488 -68.09955 37944 ft 491 kts 254°
2026-04-24 12:09 44.12313 -68.14429 36596 ft 491 kts 252°
2026-04-24 12:09 44.11144 -68.18873 38053 ft 488 kts 254°
2026-04-24 12:09 44.08806 -68.27734 37899 ft 492 kts 254°
2026-04-24 12:10 44.07184 -68.33855 37948 ft 491 kts 254°
2026-04-24 12:11 44.03637 -68.47193 37930 ft 489 kts 254°
2026-04-24 12:11 44.01270 -68.56054 37937 ft 488 kts 254°
2026-04-24 12:12 43.98913 -68.64845 37931 ft 487 kts 254°
2026-04-24 12:12 43.96541 -68.73661 37928 ft 486 kts 254°
2026-04-24 12:13 43.94169 -68.82445 37921 ft 485 kts 254°
2026-04-24 12:13 43.91795 -68.91206 37922 ft 484 kts 254°
2026-04-24 12:14 43.89438 -68.99876 36665 ft 483 kts 251°
2026-04-24 12:14 43.88254 -69.04220 38040 ft 481 kts 254°
2026-04-24 12:14 43.87062 -69.08582 37972 ft 484 kts 254°
2026-04-24 12:15 43.85225 -69.15293 36667 ft 486 kts 254°
2026-04-24 12:15 43.84232 -69.18913 37999 ft 484 kts 253°
2026-04-24 12:15 43.83030 -69.23284 37935 ft 484 kts 254°
2026-04-24 12:16 43.80644 -69.31939 36693 ft 483 kts 251°
2026-04-24 12:16 43.79448 -69.36268 38031 ft 482 kts 254°
2026-04-24 12:16 43.78243 -69.40622 37961 ft 484 kts 254°
2026-04-24 12:17 43.75822 -69.49348 37937 ft 486 kts 254°
2026-04-24 12:17 43.73402 -69.58042 37955 ft 487 kts 254°
2026-04-24 12:18 43.70912 -69.66765 37941 ft 489 kts 253°
2026-04-24 12:18 43.68330 -69.75484 37960 ft 489 kts 253°
2026-04-24 12:19 43.65751 -69.84169 37958 ft 489 kts 253°
2026-04-24 12:19 43.63179 -69.92849 37931 ft 488 kts 253°
2026-04-24 12:20 43.61253 -69.99342 37947 ft 487 kts 253°
2026-04-24 12:20 43.58839 -70.07459 37948 ft 487 kts 254°
2026-04-24 12:21 43.56260 -70.16103 37939 ft 487 kts 253°
2026-04-24 12:21 43.53668 -70.24760 37952 ft 488 kts 253°
2026-04-24 12:22 43.51070 -70.33405 37948 ft 488 kts 253°
2026-04-24 12:22 43.48486 -70.41974 37913 ft 487 kts 253°
2026-04-24 12:23 43.45884 -70.50579 37940 ft 485 kts 254°
2026-04-24 12:23 43.43147 -70.59062 37947 ft 489 kts 249°
2026-04-24 12:24 43.39434 -70.66990 37952 ft 498 kts 239°
2026-04-24 12:24 43.34629 -70.73906 37964 ft 511 kts 227°
2026-04-24 12:25 43.30402 -70.78197 37952 ft 519 kts 219°
2026-04-24 12:25 43.24331 -70.82884 37951 ft 524 kts 216°
2026-04-24 12:26 43.17936 -70.87696 37941 ft 524 kts 216°
2026-04-24 12:26 43.11557 -70.92564 37931 ft 524 kts 217°
2026-04-24 12:27 43.05180 -70.97457 37942 ft 526 kts 217°
2026-04-24 12:27 42.98788 -71.02346 37933 ft 527 kts 217°
2026-04-24 12:28 42.92433 -71.07231 37947 ft 526 kts 219°
2026-04-24 12:28 42.86564 -71.12985 37984 ft 516 kts 227°
2026-04-24 12:29 42.80943 -71.19085 37970 ft 516 kts 227°
2026-04-24 12:29 42.75296 -71.25150 37972 ft 517 kts 227°
2026-04-24 12:30 42.71249 -71.29452 37980 ft 518 kts 227°
2026-04-24 12:30 42.65705 -71.35313 37960 ft 518 kts 227°
2026-04-24 12:31 42.60046 -71.41284 37968 ft 518 kts 227°
2026-04-24 12:31 42.54346 -71.47289 37973 ft 518 kts 227°
2026-04-24 12:32 42.48637 -71.53289 37971 ft 518 kts 227°
2026-04-24 12:32 42.42940 -71.59262 37978 ft 517 kts 227°
2026-04-24 12:33 42.37248 -71.65217 37976 ft 517 kts 227°
2026-04-24 12:33 42.31594 -71.71118 37970 ft 516 kts 227°
2026-04-24 12:34 42.25910 -71.77037 37983 ft 516 kts 227°
2026-04-24 12:34 42.20218 -71.82954 37979 ft 515 kts 227°
2026-04-24 12:35 42.16392 -71.86919 37966 ft 515 kts 226°
2026-04-24 12:35 42.10174 -71.92228 37966 ft 529 kts 216°
2026-04-24 12:36 42.03629 -71.96626 37980 ft 529 kts 215°
2026-04-24 12:36 41.97043 -72.01047 37980 ft 528 kts 215°
2026-04-24 12:37 41.90490 -72.05504 38008 ft 526 kts 216°
2026-04-24 12:37 41.83964 -72.09967 38003 ft 526 kts 216°
2026-04-24 12:38 41.77478 -72.14390 38008 ft 524 kts 216°
2026-04-24 12:38 41.70973 -72.18810 37992 ft 523 kts 216°
2026-04-24 12:39 41.59115 -72.26841 37977 ft 520 kts 215°
2026-04-24 12:40 41.53818 -72.30418 38007 ft 519 kts 215°
2026-04-24 12:40 41.48327 -72.34121 38000 ft 519 kts 215°
2026-04-24 12:41 41.40814 -72.39175 38017 ft 519 kts 215°
2026-04-24 12:41 41.35407 -72.42805 38008 ft 519 kts 215°
2026-04-24 12:42 41.28988 -72.47112 38014 ft 519 kts 216°
2026-04-24 12:42 41.22964 -72.52142 38009 ft 507 kts 224°
2026-04-24 12:43 41.17204 -72.57580 38012 ft 507 kts 224°
2026-04-24 12:43 41.11428 -72.62965 38005 ft 508 kts 223°
2026-04-24 12:44 41.05616 -72.68319 38028 ft 508 kts 223°
2026-04-24 12:44 40.99795 -72.73666 38018 ft 510 kts 223°
2026-04-24 12:45 40.95090 -72.77984 38027 ft 511 kts 223°
2026-04-24 12:45 40.89930 -72.82786 37999 ft 510 kts 224°
2026-04-24 12:46 40.84225 -72.88367 38024 ft 510 kts 225°
2026-04-24 12:46 40.78528 -72.93973 38027 ft 511 kts 225°
2026-04-24 12:47 40.72811 -72.99545 38029 ft 511 kts 225°
2026-04-24 12:47 40.67099 -73.05077 38031 ft 513 kts 225°
2026-04-24 12:48 40.61336 -73.10642 38030 ft 514 kts 224°
2026-04-24 12:48 40.55562 -73.16208 38030 ft 515 kts 224°
2026-04-24 12:49 40.49772 -73.21778 38032 ft 516 kts 224°
2026-04-24 12:49 40.43976 -73.27343 38039 ft 516 kts 224°
2026-04-24 12:50 40.39276 -73.31846 38022 ft 516 kts 224°
2026-04-24 12:50 40.34146 -73.36752 38006 ft 517 kts 224°
2026-04-24 12:51 40.28341 -73.42296 38035 ft 517 kts 224°
2026-04-24 12:51 40.22553 -73.47805 38041 ft 517 kts 224°
2026-04-24 12:52 40.16715 -73.53333 38039 ft 518 kts 224°
2026-04-24 12:52 40.10866 -73.58863 38035 ft 518 kts 224°
2026-04-24 12:53 40.05021 -73.64382 38041 ft 518 kts 224°
2026-04-24 12:53 39.99159 -73.69890 38037 ft 520 kts 222°
2026-04-24 12:54 39.92830 -73.74569 38030 ft 534 kts 210°
2026-04-24 12:54 39.85904 -73.78195 38042 ft 536 kts 208°
2026-04-24 12:55 39.80299 -73.81083 38047 ft 536 kts 209°
2026-04-24 12:55 39.73368 -73.84724 38040 ft 536 kts 209°
2026-04-24 12:56 39.66468 -73.88383 38049 ft 535 kts 209°
2026-04-24 12:56 39.59612 -73.92011 38042 ft 535 kts 209°
2026-04-24 12:57 39.52706 -73.95652 38045 ft 535 kts 209°
2026-04-24 12:57 39.45809 -73.99304 38046 ft 533 kts 211°
2026-04-24 12:58 39.39419 -74.03910 38046 ft 519 kts 222°
2026-04-24 12:58 39.33823 -74.09624 38050 ft 509 kts 229°
2026-04-24 12:59 39.28448 -74.15604 38043 ft 509 kts 229°
2026-04-24 12:59 39.23075 -74.21507 38045 ft 510 kts 228°
2026-04-24 13:00 39.18673 -74.26300 38048 ft 510 kts 228°
2026-04-24 13:00 39.13256 -74.32178 38032 ft 509 kts 228°
2026-04-24 13:01 39.07844 -74.38044 38043 ft 508 kts 228°
2026-04-24 13:01 39.02434 -74.43900 38045 ft 508 kts 228°
2026-04-24 13:02 38.97023 -74.49747 38025 ft 507 kts 227°
2026-04-24 13:02 38.91682 -74.55583 38049 ft 505 kts 230°
2026-04-24 13:03 38.86522 -74.61686 38057 ft 503 kts 231°
2026-04-24 13:03 38.81360 -74.67806 38057 ft 504 kts 230°
2026-04-24 13:04 38.76198 -74.73823 38055 ft 504 kts 230°
2026-04-24 13:04 38.70807 -74.79672 38055 ft 508 kts 226°
2026-04-24 13:05 38.66351 -74.84261 38055 ft 509 kts 226°
2026-04-24 13:05 38.60842 -74.89951 38055 ft 509 kts 226°
2026-04-24 13:06 38.55353 -74.95656 38047 ft 508 kts 226°
2026-04-24 13:06 38.49916 -75.01428 38051 ft 506 kts 229°
2026-04-24 13:07 38.44583 -75.07295 38018 ft 509 kts 225°
2026-04-24 13:07 38.38890 -75.12715 38008 ft 511 kts 223°
2026-04-24 13:08 38.33160 -75.18007 38056 ft 511 kts 223°
2026-04-24 13:08 38.27435 -75.23387 38054 ft 510 kts 224°
2026-04-24 13:09 38.18925 -75.31451 38026 ft 511 kts 224°
2026-04-24 13:09 38.13212 -75.36847 38042 ft 510 kts 223°
2026-04-24 13:10 38.08568 -75.41224 38044 ft 510 kts 223°
2026-04-24 13:10 38.02843 -75.46547 38051 ft 510 kts 221°
2026-04-24 13:11 37.96946 -75.51622 38034 ft 512 kts 220°
2026-04-24 13:11 37.91072 -75.56645 38058 ft 512 kts 220°
2026-04-24 13:12 37.85181 -75.61747 38053 ft 512 kts 220°
2026-04-24 13:12 37.79086 -75.66555 38057 ft 516 kts 217°
2026-04-24 13:13 37.72930 -75.71138 38053 ft 517 kts 217°
2026-04-24 13:13 37.66734 -75.75774 38058 ft 517 kts 217°
2026-04-24 13:14 37.60554 -75.80426 38049 ft 517 kts 217°
2026-04-24 13:14 37.54409 -75.85043 38056 ft 517 kts 217°
2026-04-24 13:15 37.49615 -75.89053 38056 ft 512 kts 221°
2026-04-24 13:15 37.43794 -75.94266 38066 ft 512 kts 222°
2026-04-24 13:16 37.37984 -75.99470 38064 ft 512 kts 221°
2026-04-24 13:16 37.32192 -76.04613 38057 ft 512 kts 221°
2026-04-24 13:17 37.26350 -76.09771 38070 ft 512 kts 221°
2026-04-24 13:17 37.20511 -76.14914 38053 ft 513 kts 221°
2026-04-24 13:18 37.14668 -76.20054 38074 ft 513 kts 221°
2026-04-24 13:18 37.08859 -76.25155 38078 ft 513 kts 220°
2026-04-24 13:19 37.03013 -76.30278 38076 ft 513 kts 220°
2026-04-24 13:19 36.97154 -76.35404 38124 ft 513 kts 220°
2026-04-24 13:20 36.92373 -76.39579 38105 ft 513 kts 220°
2026-04-24 13:20 36.86510 -76.44690 38097 ft 513 kts 220°
2026-04-24 13:21 36.80682 -76.49760 38101 ft 513 kts 220°
2026-04-24 13:21 36.74814 -76.54856 38098 ft 513 kts 220°
2026-04-24 13:22 36.68947 -76.59942 38094 ft 513 kts 219°
2026-04-24 13:22 36.63075 -76.65022 38100 ft 513 kts 219°
2026-04-24 13:23 36.57193 -76.70103 38103 ft 514 kts 219°
2026-04-24 13:23 36.51345 -76.75143 38099 ft 514 kts 219°
2026-04-24 13:24 36.45461 -76.80206 38092 ft 514 kts 219°
2026-04-24 13:24 36.39562 -76.85273 38100 ft 515 kts 219°
2026-04-24 13:25 36.34948 -76.89242 38091 ft 515 kts 219°
2026-04-24 13:25 36.29124 -76.94329 38100 ft 515 kts 219°
2026-04-24 13:26 36.23260 -76.99466 38094 ft 516 kts 219°
2026-04-24 13:26 36.17386 -77.04589 38100 ft 517 kts 219°
2026-04-24 13:27 36.12494 -77.08841 38114 ft 517 kts 219°
2026-04-24 13:27 36.05632 -77.14795 38107 ft 518 kts 219°
2026-04-24 13:28 36.00683 -77.19082 38116 ft 517 kts 219°
2026-04-24 13:28 35.94783 -77.24186 38099 ft 518 kts 219°
2026-04-24 13:29 35.89051 -77.29419 38112 ft 515 kts 222°
2026-04-24 13:29 35.83416 -77.34894 38108 ft 515 kts 222°
2026-04-24 13:30 35.78997 -77.39186 38112 ft 514 kts 222°
2026-04-24 13:30 35.73361 -77.44616 38115 ft 513 kts 221°
2026-04-24 13:31 35.67728 -77.50014 38119 ft 513 kts 221°
2026-04-24 13:31 35.62102 -77.55398 38118 ft 512 kts 221°
2026-04-24 13:32 35.56508 -77.60745 38104 ft 511 kts 221°
2026-04-24 13:32 35.50894 -77.66099 38119 ft 510 kts 221°
2026-04-24 13:33 35.45295 -77.71434 38127 ft 509 kts 221°
2026-04-24 13:33 35.39697 -77.76761 38133 ft 508 kts 221°
2026-04-24 13:34 35.34104 -77.82074 38110 ft 509 kts 221°
2026-04-24 13:34 35.28543 -77.87347 38111 ft 509 kts 221°
2026-04-24 13:35 35.24010 -77.91638 38113 ft 509 kts 221°
2026-04-24 13:35 35.18406 -77.96935 38099 ft 509 kts 221°
2026-04-24 13:36 35.12791 -78.02232 38133 ft 509 kts 221°
2026-04-24 13:36 35.07201 -78.07497 38138 ft 510 kts 221°
2026-04-24 13:37 35.01565 -78.12795 38139 ft 511 kts 221°
2026-04-24 13:37 34.95927 -78.18085 38134 ft 512 kts 221°
2026-04-24 13:38 34.90271 -78.23383 38132 ft 512 kts 221°
2026-04-24 13:38 34.84608 -78.28678 38139 ft 513 kts 221°
2026-04-24 13:39 34.78971 -78.33940 38134 ft 514 kts 221°
2026-04-24 13:39 34.73288 -78.39234 38134 ft 514 kts 221°
2026-04-24 13:40 34.68730 -78.43475 38140 ft 514 kts 220°
2026-04-24 13:40 34.63039 -78.48760 38145 ft 515 kts 220°
2026-04-24 13:41 34.57349 -78.54035 38148 ft 515 kts 220°
2026-04-24 13:41 34.51647 -78.59313 38149 ft 515 kts 220°
2026-04-24 13:42 34.45949 -78.64579 38130 ft 514 kts 220°
2026-04-24 13:42 34.40292 -78.69798 38142 ft 513 kts 220°
2026-04-24 13:43 34.34452 -78.74806 38158 ft 514 kts 217°
2026-04-24 13:43 34.28509 -78.79647 38144 ft 514 kts 217°
2026-04-24 13:44 34.22599 -78.84546 38147 ft 514 kts 217°
2026-04-24 13:44 34.16756 -78.89416 38143 ft 513 kts 217°
2026-04-24 13:45 34.11971 -78.93396 38151 ft 512 kts 217°
2026-04-24 13:45 34.06096 -78.98279 38157 ft 512 kts 217°
2026-04-24 13:46 34.00270 -79.03115 38164 ft 512 kts 217°
2026-04-24 13:46 33.94392 -79.07986 38151 ft 511 kts 217°
2026-04-24 13:47 33.88523 -79.12839 38165 ft 511 kts 217°
2026-04-24 13:47 33.82647 -79.17691 38164 ft 512 kts 217°
2026-04-24 13:48 33.76777 -79.22530 38178 ft 512 kts 217°
2026-04-24 13:48 33.70940 -79.27335 38182 ft 511 kts 217°
2026-04-24 13:49 33.65079 -79.32177 38165 ft 511 kts 217°
2026-04-24 13:49 33.59280 -79.37101 38169 ft 510 kts 218°
2026-04-24 13:50 33.54558 -79.41132 38181 ft 510 kts 218°
2026-04-24 13:50 33.48807 -79.46020 38173 ft 510 kts 218°
2026-04-24 13:51 33.43006 -79.50927 38179 ft 509 kts 218°
2026-04-24 13:51 33.37201 -79.55824 38187 ft 509 kts 217°
2026-04-24 13:52 33.31432 -79.60684 38181 ft 509 kts 217°
2026-04-24 13:52 33.25632 -79.65563 38187 ft 510 kts 217°
2026-04-24 13:53 33.19827 -79.70438 38186 ft 509 kts 217°
2026-04-24 13:53 33.14023 -79.75304 38185 ft 509 kts 217°
2026-04-24 13:54 33.08232 -79.80151 38170 ft 509 kts 217°
2026-04-24 13:54 33.02417 -79.85011 38180 ft 509 kts 217°
2026-04-24 13:55 32.97726 -79.88925 38186 ft 510 kts 217°
2026-04-24 13:55 32.91908 -79.93772 38190 ft 510 kts 217°
2026-04-24 13:56 32.86088 -79.98614 38183 ft 511 kts 217°
2026-04-24 13:56 32.80257 -80.03457 38185 ft 511 kts 217°
2026-04-24 13:57 32.74415 -80.08301 38189 ft 511 kts 217°
2026-04-24 13:57 32.68650 -80.13073 38194 ft 510 kts 217°
2026-04-24 13:58 32.62794 -80.17914 38180 ft 510 kts 217°
2026-04-24 13:58 32.56974 -80.22718 38189 ft 510 kts 217°
2026-04-24 13:59 32.51099 -80.27457 38192 ft 511 kts 213°
2026-04-24 13:59 32.44854 -80.31479 38201 ft 511 kts 210°
2026-04-24 14:00 32.40019 -80.34476 38190 ft 512 kts 210°
2026-04-24 14:00 32.33761 -80.38379 38197 ft 511 kts 210°
2026-04-24 14:01 32.27473 -80.42336 38194 ft 511 kts 210°
2026-04-24 14:01 32.21195 -80.46297 38194 ft 511 kts 210°
2026-04-24 14:02 32.14918 -80.50250 38180 ft 510 kts 210°
2026-04-24 14:02 32.08649 -80.54189 38166 ft 510 kts 210°
2026-04-24 14:03 32.02375 -80.58124 38148 ft 508 kts 210°
2026-04-24 14:03 31.96167 -80.62011 38168 ft 509 kts 210°
2026-04-24 14:04 31.89906 -80.65926 38167 ft 510 kts 210°
2026-04-24 14:04 31.83627 -80.69846 38180 ft 511 kts 210°
2026-04-24 14:05 31.78562 -80.73004 38181 ft 511 kts 210°
2026-04-24 14:05 31.72269 -80.76922 38175 ft 511 kts 210°
2026-04-24 14:06 31.66017 -80.80808 38177 ft 510 kts 210°
2026-04-24 14:06 31.59741 -80.84702 38177 ft 509 kts 210°
2026-04-24 14:07 31.53523 -80.88556 38180 ft 508 kts 210°
2026-04-24 14:07 31.47279 -80.92420 38162 ft 507 kts 209°
2026-04-24 14:08 31.41054 -80.96267 38161 ft 505 kts 209°
2026-04-24 14:08 31.34821 -81.00113 38191 ft 508 kts 209°
2026-04-24 14:09 31.28499 -81.03885 38193 ft 512 kts 204°
2026-04-24 14:09 31.21605 -81.06080 38208 ft 516 kts 189°
2026-04-24 14:10 31.16697 -81.06463 38136 ft 514 kts 181°
2026-04-24 14:10 31.09572 -81.06509 38164 ft 510 kts 181°
2026-04-24 14:11 31.02524 -81.06574 38176 ft 509 kts 181°
2026-04-24 14:12 30.91839 -81.06785 38197 ft 514 kts 182°
2026-04-24 14:12 30.84661 -81.06942 38205 ft 516 kts 182°
2026-04-24 14:13 30.77485 -81.07093 38202 ft 517 kts 182°
2026-04-24 14:13 30.70328 -81.07241 38197 ft 516 kts 182°
2026-04-24 14:14 30.64320 -81.07366 38182 ft 515 kts 182°
2026-04-24 14:14 30.53668 -81.07856 37678 ft 502 kts 185°
2026-04-24 14:15 30.51475 -81.08007 37306 ft 499 kts 185°
2026-04-24 14:15 30.48949 -81.08182 36836 ft 497 kts 185°
2026-04-24 14:15 30.45507 -81.08415 36185 ft 494 kts 184°
2026-04-24 14:15 30.42071 -81.08638 35591 ft 491 kts 184°
2026-04-24 14:16 30.38675 -81.08849 35066 ft 486 kts 184°
2026-04-24 14:16 30.35312 -81.09052 34583 ft 481 kts 184°
2026-04-24 14:16 30.31970 -81.09252 34092 ft 477 kts 184°
2026-04-24 14:17 30.25432 -81.09641 33031 ft 469 kts 184°
2026-04-24 14:17 30.22186 -81.09835 32513 ft 466 kts 184°
2026-04-24 14:17 30.15756 -81.10220 31528 ft 458 kts 184°
2026-04-24 14:18 30.12583 -81.10409 31044 ft 455 kts 183°
2026-04-24 14:18 30.09426 -81.10598 30570 ft 452 kts 184°
2026-04-24 14:18 30.06297 -81.10784 30082 ft 448 kts 184°
2026-04-24 14:18 30.03232 -81.10967 29582 ft 444 kts 184°
2026-04-24 14:19 30.00151 -81.11151 29076 ft 440 kts 184°
2026-04-24 14:19 29.97098 -81.11333 28586 ft 437 kts 184°
2026-04-24 14:19 29.94075 -81.11513 28107 ft 433 kts 184°
2026-04-24 14:19 29.91073 -81.11692 27632 ft 430 kts 184°
2026-04-24 14:20 29.89269 -81.11800 27345 ft 428 kts 184°
2026-04-24 14:20 29.86449 -81.11967 26905 ft 425 kts 184°
2026-04-24 14:20 29.83490 -81.11938 26439 ft 423 kts 175°
2026-04-24 14:20 29.80593 -81.11388 25978 ft 422 kts 168°
2026-04-24 14:21 29.77778 -81.10412 25504 ft 422 kts 160°
2026-04-24 14:21 29.75069 -81.09120 25057 ft 424 kts 159°
2026-04-24 14:21 29.72345 -81.07789 24935 ft 424 kts 159°
2026-04-24 14:21 29.69639 -81.06464 24904 ft 421 kts 159°
2026-04-24 14:22 29.67024 -81.05190 24660 ft 407 kts 159°
2026-04-24 14:22 29.64426 -81.03933 24002 ft 404 kts 159°
2026-04-24 14:22 29.59197 -81.01430 22583 ft 413 kts 159°
2026-04-24 14:23 29.56541 -81.00163 22517 ft 411 kts 159°
2026-04-24 14:23 29.53912 -80.98909 22450 ft 403 kts 159°
2026-04-24 14:23 29.51362 -80.97692 21911 ft 395 kts 160°
2026-04-24 14:23 29.48823 -80.96484 21097 ft 394 kts 160°
2026-04-24 14:24 29.46289 -80.95279 20331 ft 393 kts 160°
2026-04-24 14:24 29.43776 -80.94085 19669 ft 389 kts 160°
2026-04-24 14:24 29.41290 -80.92904 19060 ft 384 kts 159°
2026-04-24 14:24 29.38828 -80.91734 18450 ft 380 kts 159°
2026-04-24 14:25 29.37454 -80.91082 18066 ft 378 kts 159°
2026-04-24 14:25 29.35030 -80.89932 17406 ft 374 kts 159°
2026-04-24 14:25 29.32666 -80.88810 16788 ft 370 kts 159°
2026-04-24 14:25 29.30302 -80.87688 16216 ft 365 kts 159°
2026-04-24 14:26 29.27969 -80.86583 15651 ft 360 kts 159°
2026-04-24 14:26 29.25666 -80.85492 15083 ft 356 kts 159°
2026-04-24 14:26 29.23385 -80.84412 14553 ft 352 kts 159°
2026-04-24 14:26 29.21135 -80.83347 14014 ft 348 kts 159°
2026-04-24 14:27 29.18905 -80.82293 13429 ft 345 kts 159°
2026-04-24 14:27 29.16703 -80.81252 12892 ft 340 kts 158°
2026-04-24 14:27 29.14524 -80.80222 12448 ft 342 kts 158°
2026-04-24 14:27 29.12341 -80.79191 12421 ft 343 kts 158°
2026-04-24 14:28 29.10128 -80.78145 12417 ft 343 kts 158°
2026-04-24 14:28 29.07913 -80.77099 12414 ft 344 kts 158°
2026-04-24 14:28 29.05729 -80.76069 12361 ft 336 kts 158°
2026-04-24 14:28 29.03598 -80.75065 12288 ft 324 kts 159°
2026-04-24 14:29 29.01496 -80.74416 12175 ft 306 kts 176°
2026-04-24 14:29 28.99438 -80.74568 12127 ft 298 kts 191°
2026-04-24 14:29 28.97433 -80.75134 12124 ft 295 kts 195°
2026-04-24 14:29 28.95464 -80.75781 12114 ft 294 kts 195°
2026-04-24 14:30 28.94408 -80.76123 12108 ft 294 kts 195°
2026-04-24 14:30 28.92264 -80.76801 12093 ft 293 kts 195°
2026-04-24 14:30 28.90295 -80.77415 12093 ft 292 kts 197°
2026-04-24 14:30 28.88509 -80.78482 12093 ft 294 kts 223°
2026-04-24 14:31 28.87319 -80.80391 12111 ft 299 kts 244°
2026-04-24 14:31 28.86453 -80.82572 12111 ft 302 kts 246°
2026-04-24 14:31 28.85617 -80.84728 12045 ft 300 kts 246°
2026-04-24 14:31 28.84778 -80.86900 11768 ft 298 kts 246°
2026-04-24 14:32 28.83947 -80.89052 11424 ft 295 kts 245°
2026-04-24 14:32 28.83116 -80.91195 11008 ft 295 kts 245°
2026-04-24 14:32 28.82285 -80.93332 10598 ft 294 kts 245°
2026-04-24 14:32 28.81457 -80.95454 10229 ft 293 kts 245°
2026-04-24 14:33 28.80629 -80.97575 9815 ft 292 kts 245°
2026-04-24 14:33 28.79799 -80.99693 9431 ft 297 kts 245°
2026-04-24 14:33 28.78950 -81.01857 9450 ft 300 kts 244°
2026-04-24 14:33 28.78268 -81.04074 9429 ft 302 kts 258°
2026-04-24 14:34 28.78024 -81.06424 9380 ft 294 kts 265°
2026-04-24 14:34 28.77879 -81.08745 9186 ft 292 kts 265°
2026-04-24 14:34 28.77707 -81.11056 8944 ft 292 kts 264°
2026-04-24 14:34 28.77507 -81.13367 8720 ft 292 kts 263°
2026-04-24 14:35 28.77298 -81.15664 8481 ft 292 kts 262°
2026-04-24 14:35 28.76830 -81.17885 8330 ft 285 kts 246°
2026-04-24 14:35 28.76001 -81.19872 8297 ft 278 kts 241°
2026-04-24 14:35 28.75327 -81.21902 8221 ft 273 kts 262°
2026-04-24 14:36 28.75501 -81.24018 8115 ft 267 kts 291°
2026-04-24 14:36 28.76444 -81.25785 8030 ft 259 kts 311°
2026-04-24 14:36 28.77680 -81.27270 7885 ft 256 kts 316°
2026-04-24 14:36 28.78957 -81.28684 7678 ft 256 kts 317°
2026-04-24 14:37 28.80238 -81.30093 7463 ft 255 kts 317°
2026-04-24 14:37 28.81642 -81.31292 7224 ft 253 kts 340°
2026-04-24 14:37 28.83347 -81.31598 6961 ft 247 kts 11°
2026-04-24 14:37 28.84888 -81.30901 6708 ft 240 kts 42°
2026-04-24 14:38 28.85869 -81.29423 6479 ft 233 kts 73°
2026-04-24 14:38 28.86010 -81.27626 6221 ft 230 kts 104°
2026-04-24 14:38 28.85313 -81.25999 5945 ft 230 kts 128°
2026-04-24 14:38 28.84292 -81.24591 5734 ft 230 kts 129°
2026-04-24 14:39 28.83257 -81.23200 5556 ft 229 kts 130°
2026-04-24 14:39 28.82222 -81.21816 5364 ft 229 kts 130°
2026-04-24 14:39 28.81184 -81.20437 5199 ft 229 kts 130°
2026-04-24 14:39 28.80158 -81.19078 5031 ft 228 kts 130°
2026-04-24 14:40 28.79116 -81.17747 4980 ft 222 kts 139°
2026-04-24 14:40 28.77769 -81.16982 4871 ft 218 kts 171°
2026-04-24 14:40 28.76283 -81.17161 4766 ft 217 kts 201°
2026-04-24 14:40 28.75044 -81.18121 4650 ft 216 kts 226°
2026-04-24 14:41 28.74302 -81.19584 4571 ft 216 kts 251°
2026-04-24 14:41 28.73842 -81.21228 4564 ft 218 kts 250°
2026-04-24 14:41 28.73381 -81.22798 4647 ft 218 kts 250°
2026-04-24 14:41 28.72936 -81.24305 4692 ft 218 kts 250°
2026-04-24 14:42 28.72613 -81.25396 4699 ft 220 kts 249°
2026-04-24 14:42 28.71951 -81.27621 4692 ft 223 kts 250°
2026-04-24 14:42 28.71456 -81.29284 4658 ft 220 kts 250°
2026-04-24 14:42 28.70964 -81.30920 4632 ft 217 kts 246°
2026-04-24 14:43 28.70126 -81.32264 4569 ft 209 kts 212°
2026-04-24 14:43 28.68807 -81.32781 4539 ft 198 kts 183°
2026-04-24 14:43 28.67438 -81.32881 4414 ft 194 kts 180°
2026-04-24 14:43 28.66121 -81.32913 4185 ft 183 kts 178°
2026-04-24 14:44 28.64877 -81.32911 3942 ft 176 kts 176°
2026-04-24 14:44 28.63653 -81.32902 3707 ft 176 kts 176°
2026-04-24 14:44 28.62429 -81.32890 3483 ft 176 kts 176°
2026-04-24 14:44 28.61227 -81.32876 3248 ft 175 kts 176°
2026-04-24 14:45 28.60009 -81.32862 3024 ft 176 kts 176°
2026-04-24 14:45 28.58790 -81.32849 2799 ft 175 kts 176°
2026-04-24 14:45 28.57575 -81.32835 2555 ft 174 kts 177°
2026-04-24 14:45 28.56362 -81.32822 2326 ft 173 kts 177°
2026-04-24 14:46 28.55192 -81.32811 2098 ft 163 kts 176°
2026-04-24 14:46 28.54045 -81.32797 1903 ft 166 kts 177°
2026-04-24 14:46 28.52893 -81.32784 1663 ft 162 kts 176°
2026-04-24 14:46 28.51794 -81.32773 1451 ft 154 kts 176°
2026-04-24 14:47 28.51084 -81.32765 1324 ft 154 kts 175°
2026-04-24 14:47 28.49637 -81.32752 1088 ft 157 kts 176°
2026-04-24 14:47 28.48537 -81.32769 910 ft 160 kts 176°
2026-04-24 14:47 28.47428 -81.32751 654 ft 162 kts 176°
2026-04-24 14:48 28.46303 -81.32702 455 ft 161 kts 175°
2026-04-24 14:48 28.45186 -81.32688 222 ft 160 kts 178°
2026-04-24 14:48 28.44085 -81.32686 112 ft 154 kts 178°
2026-04-24 14:48 28.43093 -81.32678 110 ft 119 kts 180°
2026-04-24 14:49 28.42457 -81.32671 109 ft 78 kts 180°
2026-04-24 14:49 28.41988 -81.32667 110 ft 50 kts 179°
2026-04-24 14:49 28.41662 -81.32661 112 ft 37 kts 179°
2026-04-24 14:49 28.41542 -81.32740 112 ft 22 kts 263°
2026-04-24 14:50 28.41540 -81.32857 112 ft 19 kts 271°
2026-04-24 14:50 28.41643 -81.32907 112 ft 20 kts 359°
2026-04-24 14:50 28.41817 -81.32911 111 ft 21 kts 360°
2026-04-24 14:50 28.41946 -81.32912 109 ft 15 kts 360°
2026-04-24 14:51 28.42062 -81.32912 106 ft 9 kts 359°
2026-04-24 14:51 28.42143 -81.32913 107 ft 11 kts 359°
2026-04-24 14:51 28.42289 -81.32919 107 ft 18 kts 358°
2026-04-24 14:51 28.42414 -81.32917 104 ft 13 kts 359°
2026-04-24 14:52 28.42554 -81.32918 106 ft 10 kts 359°
2026-04-24 14:52 28.42639 -81.32919 108 ft 9 kts 359°
2026-04-24 14:52 28.42681 -81.32919 108 ft 8 kts 359°
2026-04-24 14:52 28.42766 -81.32920 109 ft 5 kts 359°
2026-04-24 14:53 28.42828 -81.32921 109 ft 17 kts 360°
2026-04-24 14:53 28.42946 -81.32921 111 ft 2 kts
2026-04-24 14:53 28.43024 -81.32920 112 ft 7 kts
2026-04-24 14:53 28.43044 -81.32920 113 ft 1 kts 359°
2026-04-24 14:54 28.43080 -81.32922 111 ft 12 kts 358°
2026-04-24 14:54 28.43146 -81.32923 112 ft 13 kts 359°
2026-04-24 14:54 28.43209 -81.32927 110 ft 8 kts 357°
2026-04-24 14:54 28.43252 -81.32928 110 ft 12 kts
2026-04-24 14:55 28.43293 -81.32928 112 ft 13 kts
2026-04-24 14:55 28.43343 -81.32955 113 ft 7 kts 294°
2026-04-24 14:55 28.43347 -81.33008 112 ft 6 kts 271°
2026-04-24 14:55 28.43348 -81.33023 113 ft 0 kts 271°
2026-04-24 14:56 28.43348 -81.33035 113 ft 3 kts 271°
2026-04-24 14:56 28.43356 -81.33076 111 ft 1 kts 306°
2026-04-24 14:56 28.43358 -81.33112 113 ft 6 kts 275°
2026-04-24 14:56 28.43368 -81.33123 113 ft 1 kts 347°
2026-04-24 14:57 28.43369 -81.33123 113 ft 5 kts 347°
2026-04-24 14:57 28.43381 -81.33119 110 ft 4 kts 22°
2026-04-24 14:57 28.43396 -81.33105 112 ft 1 kts 47°
2026-04-24 14:57 28.43412 -81.33086 108 ft 0 kts 51°
2026-04-24 14:58 28.43409 -81.33063 109 ft 3 kts 106°
2026-04-24 14:58 28.43404 -81.33035 113 ft 9 kts 98°
2026-04-24 14:58 28.43403 -81.33015 112 ft 0 kts 93°